Simultaneous Nadir Overpasses (SNOs) Predictions

Prediction of SNOs between METOP-A and NPP Satellite Orbit:

Table of predicted SNOs for the next 14.0 days since TLE Epoch: 9/24/2015
Index Date (METOP-A) Time (METOP-A) Lat,Lon (METOP-A) SZA (METOP-A ) Date (NPP) Time (NPP) Lat,Lon (NPP) SZA (NPP ) Distance(km) Time Diff (sec)
1 10/01/2015 08:36:25 -73.06,-137.19 103.84 10/01/2015 08:37:28 -73.05,-137.10 103.86 3.06 63
2 10/01/2015 09:27:03 73.16, 30.35 76.27 10/01/2015 09:27:22 73.14, 30.25 76.25 3.64 19
3 10/01/2015 10:17:44 -73.19,-162.25 103.69 10/01/2015 10:17:13 -73.16,-162.25 103.72 3.51 31
4 10/01/2015 11:08:21 73.33, 5.40 76.46 10/01/2015 11:07:08 73.33, 4.91 76.48 15.57 73
5 10/04/2015 14:18:56 -72.99, 137.03 102.66 10/04/2015 14:20:08 -73.07, 137.32 102.60 12.73 72
6 10/04/2015 15:09:32 73.18, -55.23 77.54 10/04/2015 15:09:31 73.20, -55.30 77.56 3.21 1
7 10/04/2015 16:00:05 -73.62, 113.08 102.04 10/04/2015 15:58:55 -73.53, 111.64 102.08 46.28 70
8 10/06/2015 19:31:39 73.16,-120.82 78.35 10/06/2015 19:31:56 73.16,-120.72 78.35 3.47 17




NCC Satellite Simultaneous Nadir Overpasses (SNOs) Prediction Service
